Date,TemperatureHighF,TemperatureAvgF,TemperatureLowF,DewpointHighF,DewpointAvgF,DewpointLowF,HumidityHigh,HumidityAvg,HumidityLow,PressureMaxIn,PressureMinIn,WindSpeedMaxMPH,WindSpeedAvgMPH,GustSpeedMaxMPH,PrecipitationSumIn
2012-1-1,48,44,37,43,37,30,94,78,68,29.39,29.25,27,12,28,0.10
2012-1-2,41,38,36,36,33,31,91,81,74,29.42,29.28,31,14,32,0.02
2012-1-3,52,40,37,48,36,31,98,84,57,29.48,28.45,70,-38,74,1.53
2012-1-4,47,41,36,47,38,32,98,88,75,29.66,28.98,43,-56,43,0.58
2012-1-5,43,39,35,38,31,24,95,73,47,30.01,29.10,42,-6,42,0.11
2012-1-6,48,41,34,48,37,28,98,87,67,30.13,29.75,26,8,26,0.01
2012-1-7,46,43,41,40,35,31,86,72,62,30.07,29.78,30,8,30,0.01
2012-1-8,50,46,43,49,43,34,98,90,69,30.16,30.04,24,8,24,0.00
2012-1-9,49,45,40,47,40,33,97,82,63,30.31,29.99,25,-9,27,0.01
2012-1-10,49,46,43,47,41,36,98,83,74,30.25,30.16,27,12,28,0.01
2012-1-11,51,47,42,48,45,39,98,92,81,30.31,29.90,39,7,42,0.02
2012-1-12,52,44,35,49,36,29,98,76,53,30.40,29.81,46,3,46,0.19
2012-1-13,38,33,30,36,31,28,98,90,78,30.52,30.40,8,0,8,0.00
2012-1-14,38,34,30,38,34,29,98,98,98,30.40,30.25,2,0,3,0.01
2012-1-15,34,31,28,34,30,27,98,98,98,30.25,30.19,4,0,5,0.00
2012-1-16,36,29,23,35,28,22,98,96,83,30.22,30.16,10,0,12,0.01
2012-1-17,45,40,34,43,37,31,98,92,85,30.19,29.93,17,3,17,0.00
2012-1-18,50,45,41,50,39,32,98,82,58,29.99,29.81,33,11,37,0.02
2012-1-19,42,38,34,40,35,27,98,89,57,29.90,29.72,26,10,31,0.30
2012-1-20,48,40,33,48,37,29,98,90,72,29.90,29.57,27,6,33,0.06
2012-1-21,49,43,40,48,35,31,98,74,61,29.66,29.48,40,7,48,0.03
2012-1-22,45,42,38,44,37,32,98,83,68,29.87,29.42,39,10,39,0.27
2012-1-23,42,37,33,35,32,29,94,83,61,30.01,29.84,21,4,21,0.00
2012-1-24,41,38,34,41,37,33,98,98,95,30.01,29.81,7,-3,8,0.20
2012-1-25,50,47,39,47,44,39,98,88,73,29.84,29.42,46,-4,47,0.20
2012-1-26,39,36,32,39,35,31,98,96,87,29.63,29.45,11,-6,13,0.08
2012-1-27,38,34,29,38,33,27,98,95,85,30.25,29.63,11,-26,11,0.01
2012-1-28,37,32,28,36,31,28,98,96,85,30.46,30.25,9,0,9,0.00
2012-1-29,40,36,32,38,34,32,98,95,81,30.43,30.37,13,-2,13,0.00
2012-1-30,39,36,34,35,31,23,95,82,59,30.37,30.28,14,3,15,0.00
2012-1-31,39,37,36,30,26,22,75,63,53,30.55,30.28,20,5,20,0.00
2012-2-1,39,36,28,24,22,21,79,59,51,30.66,30.55,20,-1,22,0.00
2012-2-2,35,30,24,25,22,20,90,74,55,30.66,30.61,8,0,9,0.00
2012-2-3,38,33,30,29,25,21,91,73,61,30.61,30.52,11,2,13,0.00
2012-2-4,39,36,31,37,33,29,98,91,78,30.52,30.04,28,-12,31,0.04
2012-2-5,42,36,30,40,36,30,98,97,89,30.37,30.10,11,1,11,0.03
2012-2-6,40,33,28,40,33,28,98,98,98,30.64,30.37,4,0,6,0.01
2012-2-7,40,32,27,39,31,27,98,96,83,30.72,30.61,6,-7,7,0.01
2012-2-8,34,33,29,33,25,15,98,73,48,30.69,30.58,17,4,18,0.01
2012-2-9,41,37,34,40,37,32,98,97,92,30.58,30.49,8,1,10,0.03
2012-2-10,40,38,37,39,38,36,98,98,93,30.52,30.46,9,-23,9,0.01
2012-2-11,41,38,36,40,38,36,98,98,95,30.55,30.43,8,-27,9,0.01
2012-2-12,44,39,32,43,38,32,98,95,78,30.55,30.46,11,-28,11,0.00
2012-2-13,49,42,32,44,35,30,98,77,52,30.46,30.22,26,4,26,0.00
2012-2-14,49,44,38,39,35,32,89,71,58,30.37,30.19,23,5,30,0.00
2012-2-15,52,46,40,41,37,32,91,72,53,30.31,30.19,19,4,25,0.00
2012-2-16,52,46,41,50,42,36,98,87,60,30.28,30.07,25,-8,28,0.00
2012-2-17,49,47,43,48,44,37,98,89,79,30.10,29.63,31,2,33,0.03
2012-2-18,47,40,33,44,33,20,95,76,48,29.87,29.39,34,13,34,0.08
2012-2-19,41,35,29,33,24,18,88,65,42,30.28,29.87,17,2,17,0.00
2012-2-20,50,44,38,49,42,32,98,90,78,30.25,29.93,31,14,32,0.00
2012-2-21,52,50,48,50,47,44,98,92,78,30.04,29.90,31,-3,35,0.01
2012-2-22,55,52,48,53,50,45,98,93,88,29.90,29.60,32,10,33,0.11
2012-2-23,53,51,49,52,49,44,98,94,78,29.96,29.87,34,14,35,0.04
2012-2-24,50,46,42,47,38,30,95,72,49,30.25,29.96,31,6,31,0.00
2012-2-25,47,44,42,46,42,37,98,92,82,30.25,30.13,19,8,21,0.09
2012-2-26,49,46,43,48,45,43,98,96,88,30.25,30.04,22,6,23,0.00
2012-2-27,53,50,48,52,49,46,98,96,84,30.04,29.93,26,11,31,0.01
2012-2-28,53,52,49,53,51,48,98,98,98,30.13,29.99,24,2,25,0.00
2012-2-29,52,49,47,48,44,41,97,83,70,30.13,30.04,22,3,24,0.00
2012-3-1,54,48,45,48,44,41,98,86,69,30.31,30.07,16,4,18,0.00
2012-3-2,50,46,43,49,44,42,98,96,86,30.31,30.07,12,-2,15,0.03
2012-3-3,51,44,37,44,40,33,98,86,53,30.07,29.78,23,0,27,0.02
2012-3-4,45,38,31,39,32,25,98,81,50,30.13,29.93,17,-2,17,0.03
2012-3-5,50,38,30,36,29,24,98,75,40,30.31,30.13,13,-21,13,0.01
2012-3-6,48,41,30,46,36,26,97,82,61,30.28,29.63,39,-194,42,0.00
2012-3-7,52,42,35,48,37,27,98,81,52,29.99,29.48,38,13,44,0.23
2012-3-8,50,44,36,45,40,34,98,86,74,30.22,29.99,27,13,30,0.01
2012-3-9,55,50,46,50,45,37,93,82,66,30.34,30.10,33,15,38,0.00
2012-3-10,49,48,46,44,42,38,89,80,73,30.55,30.31,26,12,28,0.00
2012-3-11,53,48,45,48,45,42,98,89,73,30.58,30.52,26,13,26,0.00
2012-3-12,50,48,46,44,43,41,93,83,74,30.52,30.49,17,-6,18,0.00
2012-3-13,50,46,43,43,39,36,96,77,60,30.52,30.46,15,-5,15,0.00
2012-3-14,50,46,43,40,38,34,88,76,57,30.46,30.25,20,0,22,0.00
2012-3-15,50,44,37,43,39,34,97,82,63,30.25,30.01,21,7,21,0.00
2012-3-16,52,47,43,50,45,40,98,92,75,30.01,29.75,27,5,29,0.31
2012-3-17,51,43,35,42,35,26,98,76,41,29.93,29.75,23,7,23,0.00
2012-3-18,46,38,32,36,32,28,94,80,57,30.22,29.93,16,6,16,0.00
2012-3-19,50,45,39,48,41,35,98,85,69,30.28,30.22,28,11,30,0.02
2012-3-20,56,51,48,50,46,41,98,86,67,30.40,30.22,25,11,26,0.04
2012-3-21,57,49,37,42,38,32,83,66,47,30.52,30.40,18,4,21,0.00
2012-3-22,60,45,34,46,38,32,98,79,46,30.55,30.43,19,7,19,0.00
2012-3-23,54,45,39,47,43,39,98,92,72,30.43,30.31,21,10,22,0.00
2012-3-24,53,46,41,50,44,41,98,96,85,30.46,30.34,11,4,11,0.00
2012-3-25,68,50,36,58,44,36,98,83,45,30.61,30.43,9,3,9,0.00
2012-3-26,70,52,37,50,41,36,98,71,32,30.64,30.58,10,-18,10,0.00
2012-3-27,68,52,36,44,36,29,96,61,23,30.66,30.58,12,-14,16,0.00
2012-3-28,67,53,38,44,36,29,98,58,25,30.58,30.43,20,7,20,0.00
2012-3-29,64,52,46,45,40,33,92,65,39,30.43,30.31,23,9,24,0.00
2012-3-30,62,50,40,45,42,39,98,77,47,30.34,30.13,22,8,23,0.00
2012-3-31,53,46,37,40,34,28,89,64,41,30.25,30.13,17,7,18,0.00
2012-4-1,59,45,31,40,35,27,97,70,42,30.22,29.99,17,6,19,0.00
2012-4-2,49,45,41,44,41,37,98,87,72,29.99,29.66,17,2,19,0.02
2012-4-3,44,37,34,44,34,26,98,89,56,29.99,29.54,39,-17,43,0.59
2012-4-4,45,38,33,33,28,25,84,67,49,30.25,29.96,30,13,31,0.00
2012-4-5,51,39,26,43,32,22,98,75,56,30.25,30.10,18,3,18,0.00
2012-4-6,52,46,40,51,45,39,98,97,89,30.10,29.81,20,-12,20,0.04
2012-4-7,53,45,40,47,43,39,98,91,71,29.99,29.84,13,5,13,0.00
2012-4-8,54,48,44,50,45,40,98,88,70,29.87,29.48,30,10,30,0.01
2012-4-9,51,45,41,44,40,34,97,82,54,29.48,28.92,22,-24,23,0.06
2012-4-10,52,43,37,44,40,33,98,90,51,29.22,28.83,19,-27,22,1.11
2012-4-11,55,44,38,44,40,33,98,86,46,29.60,29.22,25,-7,26,0.09
2012-4-12,52,44,39,41,36,28,98,77,42,29.75,29.60,21,6,23,0.05
2012-4-13,52,41,36,39,32,26,88,70,47,29.81,29.72,24,6,27,0.04
2012-4-14,52,40,34,34,29,23,86,66,37,30.07,29.81,23,9,24,0.01
2012-4-15,50,40,32,30,24,19,73,52,32,30.31,30.07,19,7,19,0.00
2012-4-16,51,42,30,35,28,19,84,61,33,30.28,29.75,27,6,29,0.01
2012-4-17,52,43,39,42,37,30,98,81,46,29.75,29.16,24,10,25,0.32
2012-4-18,55,45,37,46,39,33,98,80,50,29.25,29.10,23,10,23,0.02
2012-4-19,50,44,40,45,41,38,96,89,75,29.31,29.22,23,10,23,0.03
2012-4-20,50,44,39,47,42,38,98,92,81,29.34,29.25,13,4,13,0.19
2012-4-21,51,46,42,44,42,39,98,89,70,29.51,29.31,17,6,18,0.04
2012-4-22,54,46,41,45,41,37,97,84,61,29.60,29.51,15,6,16,0.00
2012-4-23,54,44,40,47,39,33,97,83,52,29.57,29.48,22,6,24,0.31
2012-4-24,54,44,40,46,40,37,96,85,62,29.54,29.51,15,6,18,0.15
2012-4-25,47,44,40,46,43,39,98,97,89,29.51,29.28,32,14,33,0.66
2012-4-26,52,46,40,47,40,32,98,82,69,29.72,29.28,31,15,33,0.18
2012-4-27,53,42,35,36,30,24,87,64,37,30.16,29.72,18,8,20,0.00
2012-4-28,52,42,35,37,31,26,90,66,41,30.31,30.16,22,11,25,0.00
2012-4-29,49,41,34,39,32,29,94,72,49,30.28,29.96,27,13,30,0.07
2012-4-30,49,45,41,47,44,39,98,96,91,30.28,29.96,26,14,28,0.10
2012-5-1,56,49,44,46,41,28,97,76,37,30.34,30.28,25,12,25,0.00
2012-5-2,55,47,43,44,42,40,94,82,65,30.34,30.22,16,9,16,0.00
2012-5-3,59,47,42,46,42,39,97,83,52,30.22,29.87,16,7,17,0.00
2012-5-4,51,45,34,45,32,17,98,63,31,29.93,29.81,29,10,30,0.01
2012-5-5,52,42,31,26,21,16,72,46,28,29.96,29.90,15,6,17,0.00
2012-5-6,52,43,36,41,33,26,86,68,38,30.01,29.93,15,6,15,0.01
2012-5-7,51,43,36,43,38,32,95,84,51,29.99,29.66,19,8,22,0.21
2012-5-8,54,47,39,46,39,31,98,77,45,29.69,29.57,21,7,24,0.01
2012-5-9,58,46,38,41,36,30,97,69,38,29.84,29.69,22,7,22,0.00
2012-5-10,46,43,41,44,41,38,98,94,83,29.81,29.69,25,12,27,0.68
2012-5-11,49,43,38,42,38,34,97,84,64,30.46,29.81,22,8,22,0.04
2012-5-12,58,47,34,42,34,29,97,65,34,30.58,30.46,23,9,24,0.01
2012-5-13,51,47,45,47,41,36,95,79,63,30.46,29.69,41,18,46,0.15
2012-5-14,53,46,40,46,38,33,91,73,49,29.81,29.69,36,10,42,0.13
2012-5-15,54,45,38,39,30,20,92,60,30,30.19,29.81,25,8,28,0.01
2012-5-16,53,44,33,41,32,26,87,63,39,30.19,30.13,22,7,23,0.02
2012-5-17,49,45,42,46,44,40,98,95,85,30.13,29.93,19,7,19,0.31
2012-5-18,46,43,40,45,42,39,98,95,88,29.99,29.87,28,14,28,0.11
2012-5-19,53,44,41,42,38,36,93,79,59,30.01,29.96,18,11,20,0.00
2012-5-20,60,53,46,41,38,35,82,58,45,29.96,29.93,15,8,17,0.00
2012-5-21,63,51,44,50,44,38,95,77,45,30.01,29.90,15,8,16,0.00
2012-5-22,72,57,47,56,48,43,98,76,40,30.25,29.99,15,6,15,0.00
2012-5-23,67,54,46,58,50,44,98,88,69,30.40,30.22,11,3,12,0.00
2012-5-24,75,62,54,64,57,51,98,82,58,30.49,30.37,16,4,17,0.00
2012-5-25,74,61,53,60,53,44,98,77,42,30.49,30.40,23,10,24,0.00
2012-5-26,71,62,51,51,44,36,83,54,31,30.43,30.31,23,9,26,0.00
2012-5-27,77,64,52,58,49,40,98,65,32,30.34,30.19,15,7,15,0.00
2012-5-28,73,59,48,59,49,42,96,72,42,30.19,30.10,26,8,26,0.00
2012-5-29,60,53,49,54,50,47,98,89,79,30.16,30.04,13,6,15,0.00
2012-5-30,56,52,49,53,51,48,98,95,88,30.07,30.04,14,7,15,0.00
2012-5-31,59,52,48,59,52,47,98,98,90,30.10,29.99,14,5,15,0.59
2012-6-1,64,53,47,50,46,38,98,79,44,30.19,30.10,21,8,21,0.00
2012-6-2,56,50,43,44,38,30,82,64,41,30.10,29.99,23,11,24,0.00
2012-6-3,58,49,41,39,36,33,86,63,44,30.04,29.90,22,11,23,0.00
2012-6-4,61,50,37,40,35,28,96,60,32,30.07,30.01,14,6,17,0.00
2012-6-5,62,51,39,50,41,33,95,71,37,30.01,29.69,17,5,18,0.03
2012-6-6,59,53,50,57,52,49,98,97,87,29.69,29.45,17,6,17,0.13
2012-6-7,60,53,47,57,52,46,98,95,81,29.51,29.34,28,10,30,0.03
2012-6-8,56,54,52,55,53,51,98,96,91,29.48,29.22,28,14,33,0.66
2012-6-9,67,57,53,58,50,44,98,77,54,29.81,29.48,17,7,19,0.15
2012-6-10,57,52,49,53,49,45,98,91,73,29.84,29.78,15,8,15,0.02
2012-6-11,56,50,48,49,46,42,98,86,71,29.87,29.78,13,7,16,0.05
2012-6-12,58,50,42,50,44,39,98,79,51,29.99,29.87,15,5,15,0.06
2012-6-13,64,53,43,46,42,34,97,69,39,30.10,29.99,15,6,17,0.00
2012-6-14,62,53,47,47,42,38,81,66,51,30.10,30.01,26,12,31,0.00
2012-6-15,50,48,47,50,46,43,98,94,81,30.01,29.63,29,15,29,0.30
2012-6-16,52,49,48,52,49,47,98,98,98,29.63,29.54,28,16,30,0.35
2012-6-17,55,50,48,54,49,48,98,97,89,30.01,29.63,13,3,18,0.20
2012-6-18,64,53,43,48,41,32,98,69,34,30.04,29.99,13,5,13,0.00
2012-6-19,64,56,48,52,44,35,90,67,34,30.10,29.99,20,6,21,0.00
2012-6-20,67,54,42,53,47,39,98,78,45,30.13,30.04,19,7,19,0.00
2012-6-21,56,53,50,55,52,50,98,98,93,30.04,29.54,28,6,28,0.50
2012-6-22,65,57,51,64,54,50,98,91,71,29.60,29.42,23,5,23,0.54
2012-6-23,57,54,51,54,51,47,98,91,71,29.84,29.60,36,9,36,0.18
2012-6-24,64,57,52,56,51,45,98,82,56,29.90,29.72,19,-7,19,0.00
2012-6-25,68,57,47,53,48,43,98,75,45,30.13,29.90,12,4,12,0.00
2012-6-26,69,57,48,58,53,47,98,87,54,30.13,29.99,21,8,21,0.22
2012-6-27,61,56,54,60,56,53,98,98,98,29.99,29.87,12,4,13,0.20
2012-6-28,67,59,54,66,58,54,98,95,75,29.87,29.42,23,5,24,0.17
2012-6-29,61,58,56,59,56,52,98,93,77,29.42,29.28,28,10,28,0.17
2012-6-30,63,56,52,56,52,46,98,86,62,29.63,29.42,26,7,30,0.20
2012-7-1,63,55,51,56,49,41,98,81,54,29.87,29.60,22,5,22,0.03
2012-7-2,61,55,50,60,54,46,98,97,85,29.87,29.81,15,6,15,0.34
2012-7-3,66,61,56,63,58,56,98,91,78,29.87,29.81,10,3,11,0.02
2012-7-4,73,62,58,67,60,57,98,95,70,29.87,29.75,17,8,17,0.28
2012-7-5,72,62,57,66,60,56,98,92,67,29.99,29.87,19,8,20,0.00
2012-7-6,69,61,57,62,57,50,98,89,58,29.99,29.90,28,13,30,0.02
2012-7-7,61,57,53,60,56,53,98,97,82,29.93,29.84,33,-54,33,0.76
2012-7-8,60,56,52,56,53,52,98,91,80,29.87,29.81,9,2,10,0.02
2012-7-9,56,54,53,55,54,51,98,97,94,29.90,29.84,12,-217,13,0.43
2012-7-10,60,54,51,54,51,50,98,90,72,29.90,29.81,13,5,15,0.02
2012-7-11,55,52,50,54,51,50,98,96,90,29.84,29.75,9,-31,9,0.29
2012-7-12,60,54,50,54,49,45,98,84,62,29.87,29.78,13,-22,15,0.06
2012-7-13,60,54,51,50,47,44,93,78,62,29.78,29.66,15,6,15,0.29
2012-7-14,62,54,48,54,47,41,98,81,51,29.81,29.69,11,-11,13,0.29
2012-7-15,60,53,47,49,46,40,93,75,55,29.96,29.78,26,10,30,0.29
2012-7-16,65,56,48,55,50,42,93,81,60,30.01,29.93,13,5,13,0.01
2012-7-17,62,54,46,53,48,43,96,80,55,30.10,29.93,13,5,14,0.00
2012-7-18,57,55,51,57,54,50,98,98,94,29.93,29.66,17,-44,17,2.13
2012-7-19,63,54,48,51,46,36,98,77,40,29.99,29.75,15,5,15,0.01
2012-7-20,61,54,45,52,45,39,98,74,48,30.16,29.99,10,3,10,0.00
2012-7-21,64,55,42,50,44,39,98,70,46,30.25,30.13,20,6,20,0.00
2012-7-22,66,60,54,62,54,47,98,81,68,30.22,29.96,32,11,32,0.00
2012-7-23,63,60,56,62,59,55,98,98,93,30.04,29.93,22,6,23,0.76
2012-7-24,68,60,54,60,53,48,98,81,51,30.10,30.01,19,6,19,0.01
2012-7-25,71,60,49,56,51,46,98,75,44,30.22,30.10,16,6,16,0.01
2012-7-26,66,59,49,59,53,43,98,83,50,30.22,30.01,13,6,15,0.00
2012-7-27,62,56,48,52,46,38,92,71,43,30.01,29.81,29,11,31,0.04
2012-7-28,61,55,52,55,50,43,98,85,59,29.81,29.66,22,8,24,0.17
2012-7-29,62,55,49,51,48,41,98,79,48,29.81,29.66,23,8,24,0.08
2012-7-30,61,53,48,53,45,38,98,76,45,29.93,29.81,26,7,26,0.15
2012-7-31,70,55,41,53,44,34,98,71,34,29.93,29.81,20,6,20,0.18
2012-8-1,65,60,54,62,57,52,98,91,74,29.81,29.57,18,4,21,0.21
2012-8-2,68,59,49,56,49,42,98,72,41,29.84,29.63,13,-4,13,0.01
2012-8-3,66,57,46,57,51,44,98,82,56,29.87,29.81,11,-4,11,0.02
2012-8-4,73,61,54,61,54,49,98,80,48,29.87,29.81,15,5,16,0.00
2012-8-5,62,58,56,59,56,53,98,94,80,29.81,29.72,16,-16,16,1.31
2012-8-6,68,58,55,63,56,54,98,94,70,29.90,29.69,11,3,11,0.34
2012-8-7,68,58,50,55,49,42,98,74,39,30.16,29.90,15,6,16,0.00
2012-8-8,70,57,45,58,48,40,98,75,38,30.31,30.16,13,4,14,0.00
2012-8-9,70,56,45,56,49,44,98,79,44,30.40,30.28,15,4,15,0.00
2012-8-10,72,59,52,59,53,49,98,82,46,30.40,30.37,14,4,15,0.01
2012-8-11,69,59,52,56,52,46,98,78,48,30.37,30.10,20,10,20,0.00
2012-8-12,72,61,55,58,54,50,93,80,48,30.10,29.90,20,11,23,0.00
2012-8-13,70,62,58,64,59,56,98,88,69,29.90,29.75,17,5,18,0.04
2012-8-14,71,62,55,66,57,49,98,84,51,29.96,29.78,15,5,16,0.05
2012-8-15,68,60,55,62,58,54,98,92,73,29.96,29.66,31,12,34,0.00
2012-8-16,68,63,56,58,51,46,98,66,48,29.93,29.72,26,11,34,0.34
2012-8-17,69,62,57,66,59,53,98,91,70,29.93,29.72,18,3,18,0.53
2012-8-18,70,64,55,66,58,46,98,81,44,30.04,29.75,20,6,23,0.04
2012-8-19,71,59,50,61,55,49,98,86,53,30.07,30.01,11,2,11,0.11
2012-8-20,70,60,50,62,55,49,98,84,49,30.07,29.99,18,4,20,0.02
2012-8-21,66,59,53,63,56,52,98,92,79,30.07,29.81,11,4,13,0.50
2012-8-22,65,58,54,57,54,48,98,86,55,29.87,29.78,27,10,27,0.09
2012-8-23,64,58,54,54,51,41,96,78,46,29.87,29.78,18,7,19,0.03
2012-8-24,66,58,52,58,52,46,98,83,54,29.78,29.63,13,3,13,0.04
2012-8-25,65,56,52,56,54,52,98,91,65,29.84,29.60,13,5,13,0.64
2012-8-26,62,54,50,52,45,38,98,75,43,30.04,29.84,15,5,15,0.01
2012-8-27,60,55,50,58,53,45,98,93,81,29.99,29.51,26,4,28,0.27
2012-8-28,65,58,53,57,47,37,97,70,36,29.81,29.54,28,11,31,0.03
2012-8-29,61,54,48,56,51,45,97,89,75,29.78,29.63,16,5,16,0.40
2012-8-30,61,52,45,50,38,29,98,63,32,30.34,29.75,24,8,24,0.01
2012-8-31,57,49,38,56,46,34,98,88,68,30.37,30.19,17,5,19,0.10
2012-9-1,65,59,57,58,55,45,98,87,50,30.19,29.99,27,11,27,0.00
2012-9-2,67,59,54,59,51,43,98,76,45,30.25,29.99,22,8,23,0.00
2012-9-3,71,62,58,62,53,44,98,74,42,30.25,30.04,20,6,23,0.03
2012-9-4,64,59,52,62,44,34,98,62,35,30.25,30.04,33,13,33,0.00
2012-9-5,63,55,46,49,42,37,84,64,41,30.40,30.25,20,7,21,0.00
2012-9-6,60,54,44,58,50,40,98,87,57,30.40,30.04,32,-5,32,0.02
2012-9-7,66,60,57,60,58,55,98,91,70,30.16,30.04,24,10,25,0.06
2012-9-8,64,60,53,59,54,47,98,81,63,30.13,29.93,18,7,19,0.00
2012-9-9,63,60,50,58,54,45,98,82,58,29.93,29.51,25,-3,26,0.04
2012-9-10,60,55,46,58,51,45,98,88,66,29.66,29.51,17,-56,17,0.23
2012-9-11,57,49,42,48,41,32,98,77,40,29.81,29.63,31,10,34,0.01
2012-9-12,59,51,40,49,39,30,96,67,35,30.04,29.75,20,8,23,0.00
2012-9-13,60,52,40,56,47,35,96,84,71,30.04,29.54,35,11,42,0.06
2012-9-14,61,55,51,50,44,38,92,67,45,29.90,29.51,35,12,36,0.01
2012-9-15,59,55,51,52,44,38,92,70,49,29.90,29.75,30,12,30,0.00
2012-9-16,62,54,49,55,48,40,97,81,56,29.75,29.60,26,4,27,0.05
2012-9-17,58,50,46,49,45,35,96,83,50,29.69,29.57,32,6,32,0.25
2012-9-18,57,48,41,45,38,29,98,72,37,29.99,29.63,25,8,25,0.01
2012-9-19,57,47,38,44,38,32,98,74,41,30.07,29.99,23,7,23,0.01
2012-9-20,51,47,44,50,46,41,98,96,87,30.04,29.93,16,0,16,0.74
2012-9-21,56,46,38,46,36,29,98,73,38,30.13,29.99,17,7,19,0.01
2012-9-22,57,44,32,43,35,29,98,72,39,30.16,30.10,9,3,10,0.00
2012-9-23,59,47,36,46,37,30,97,71,36,30.10,29.75,19,8,21,0.00
2012-9-24,51,49,47,49,45,40,95,87,76,29.75,29.22,40,-33,42,0.71
2012-9-25,53,50,48,52,47,39,98,89,68,29.28,28.92,47,19,53,0.49
2012-9-26,60,52,48,50,47,43,98,85,55,29.66,29.28,27,-131,28,0.91
2012-9-27,54,50,47,50,46,38,98,85,55,29.72,29.66,20,-6,22,0.07
2012-9-28,55,50,46,50,44,35,97,78,48,29.69,29.60,26,7,32,0.14
2012-9-29,57,51,47,47,39,30,87,66,39,29.96,29.66,31,-38,31,0.01
2012-9-30,59,54,50,55,49,38,98,83,46,29.87,29.63,29,-290,31,0.42
2012-10-1,57,52,46,49,45,37,96,78,49,29.66,29.54,24,-22,24,0.16
2012-10-2,54,50,46,49,44,39,94,83,59,29.57,29.34,26,4,29,0.03
2012-10-3,55,47,40,47,42,35,98,85,50,29.54,29.31,23,-59,23,0.16
2012-10-4,54,44,36,49,41,35,98,89,62,29.66,29.54,13,1,13,0.06
2012-10-5,56,46,40,46,39,33,98,78,46,29.75,29.48,16,-20,17,0.09
2012-10-6,57,46,38,47,38,29,98,76,39,30.07,29.72,18,5,18,0.00
2012-10-7,56,42,32,40,33,28,98,74,41,30.22,30.07,13,4,14,0.00
2012-10-8,56,42,32,44,34,30,98,75,45,30.16,30.01,15,3,15,0.00
2012-10-9,52,40,30,38,30,25,94,71,40,30.10,30.04,10,3,10,0.00
2012-10-10,55,40,29,46,34,26,98,82,48,30.04,29.78,10,2,10,0.00
2012-10-11,57,50,46,50,46,40,98,89,55,29.78,29.54,17,-22,18,0.69
2012-10-12,51,48,47,49,44,38,98,86,69,29.54,29.42,26,-236,28,0.96
2012-10-13,49,47,45,46,43,40,94,86,76,29.60,29.51,22,5,23,0.11
2012-10-14,50,45,42,48,44,38,98,93,80,29.69,29.57,20,3,20,0.13
2012-10-15,50,40,34,38,32,25,90,73,41,29.63,29.39,13,-10,13,0.00
2012-10-16,45,41,34,42,37,31,97,88,76,29.51,29.25,19,8,19,0.52
2012-10-17,47,42,32,46,41,31,98,98,92,29.51,29.31,21,6,23,1.09
2012-10-18,54,48,44,53,47,44,98,96,90,29.69,29.39,17,8,17,0.13
2012-10-19,50,48,46,49,46,44,98,94,87,29.81,29.69,19,3,19,0.05
2012-10-20,54,48,42,50,45,39,98,91,72,30.04,29.75,10,2,11,0.03
2012-10-21,57,48,42,52,46,41,98,92,72,30.25,30.01,13,4,13,0.00
2012-10-22,49,45,35,48,44,34,98,95,89,30.37,30.22,16,3,16,0.00
2012-10-23,52,50,48,52,49,46,98,97,93,30.40,30.34,15,8,17,0.00
2012-10-24,52,48,44,50,46,39,98,90,71,30.40,30.22,15,4,15,0.01
2012-10-25,52,44,36,46,38,26,98,80,53,30.25,30.16,24,5,26,0.00
2012-10-26,43,37,34,28,22,16,70,54,35,30.22,30.07,24,11,26,0.00
2012-10-27,45,39,32,43,28,20,98,65,38,30.22,29.90,17,4,20,0.07
2012-10-28,49,46,39,46,44,38,98,91,83,29.90,29.54,22,8,23,0.02
2012-10-29,47,40,34,44,36,31,98,88,57,29.78,29.63,11,4,13,0.00
2012-10-30,48,47,46,46,44,40,94,87,75,29.34,29.04,32,5,32,0.04
2012-10-31,48,42,34,43,40,33,98,91,72,29.04,28.80,34,-14,34,0.41
2012-11-1,43,38,32,40,35,32,98,91,69,28.80,28.74,19,-27,19,0.05
2012-11-2,45,41,33,42,35,29,97,81,60,29.22,28.71,29,-19,29,0.13
2012-11-3,44,35,31,39,30,23,98,82,46,29.31,29.19,17,4,18,0.00
2012-11-4,44,37,31,41,35,27,98,92,80,29.63,29.28,12,-4,12,0.00
2012-11-5,46,36,32,40,33,27,98,90,64,29.96,29.63,9,0,9,0.00
2012-11-6,52,47,35,48,43,32,98,88,73,30.01,29.84,26,-2,27,0.06
2012-11-7,51,49,47,48,44,40,97,86,76,30.01,29.78,33,16,33,0.01
2012-11-8,50,48,45,45,41,35,91,78,56,29.93,29.72,27,11,27,0.00
2012-11-9,49,47,43,47,41,37,97,81,65,29.72,29.34,23,7,24,0.05
2012-11-10,47,42,36,42,38,35,98,86,70,29.48,29.28,14,6,15,0.07
2012-11-11,45,37,33,39,35,30,98,91,76,29.96,29.48,10,4,11,0.01
2012-11-12,54,43,32,53,42,31,98,97,92,29.96,29.84,16,4,16,0.03
2012-11-13,57,53,47,53,50,46,98,89,71,30.10,29.90,29,9,37,0.09
2012-11-14,48,46,38,48,46,37,98,98,97,30.22,30.10,10,2,10,0.18
2012-11-15,49,44,37,48,43,36,98,97,90,30.22,29.93,13,-6,15,0.05
2012-11-16,48,45,44,47,40,36,97,82,70,29.93,29.66,17,3,19,0.01
2012-11-17,47,41,37,43,38,33,98,89,67,29.69,29.60,31,7,31,0.09
2012-11-18,45,39,36,38,35,31,96,85,68,29.81,29.66,17,6,19,0.01
2012-11-19,54,49,40,49,44,36,94,82,70,29.66,29.31,36,7,43,0.39
2012-11-20,57,51,47,51,42,31,91,74,50,29.57,29.36,30,7,31,0.00
2012-11-21,47,42,36,44,37,32,95,82,62,29.72,29.57,20,0,20,0.00
2012-11-22,52,45,40,46,41,36,96,86,69,29.63,29.28,36,11,39,0.66
2012-11-23,46,42,36,39,35,31,89,78,57,29.81,29.34,26,10,28,0.13
2012-11-24,40,36,31,39,34,30,98,95,87,29.96,29.63,14,4,15,0.03
2012-11-25,41,39,32,40,38,32,98,97,95,29.63,29.45,20,7,20,0.46
2012-11-26,43,40,33,37,34,32,98,80,69,29.81,29.63,21,10,22,0.00
2012-11-27,44,39,35,33,30,27,79,70,62,30.07,29.81,18,7,19,0.00
2012-11-28,40,35,28,30,25,20,84,67,51,30.10,30.04,15,5,15,0.00
2012-11-29,34,30,26,30,25,21,88,82,70,30.04,29.81,9,4,9,0.00
2012-11-30,36,32,24,33,29,22,97,89,79,29.90,29.78,9,0,10,0.37
2012-12-1,39,34,31,34,27,19,98,76,51,29.99,29.84,15,6,15,0.00
2012-12-2,36,31,26,30,24,19,83,76,70,29.96,29.90,13,5,13,0.00
2012-12-3,38,35,31,37,34,31,98,97,93,29.54,29.45,17,7,19,0.09
2012-12-4,36,33,28,36,32,25,98,96,77,29.72,29.45,21,8,24,0.07
2012-12-5,35,31,22,27,22,15,84,70,58,29.96,29.69,19,7,24,0.00
2012-12-6,37,34,23,36,30,18,98,87,70,29.93,29.25,30,-4,30,0.34
2012-12-7,41,37,32,35,30,25,98,75,60,30.07,29.34,26,9,26,0.00
2012-12-8,46,38,29,45,36,24,98,90,75,30.13,29.90,26,4,26,0.04
2012-12-9,46,42,37,44,29,24,97,61,49,30.16,29.84,28,11,28,0.00
2012-12-10,39,34,27,28,25,20,80,69,59,30.46,30.16,19,6,20,0.00
2012-12-11,32,27,22,26,22,17,90,81,70,30.46,30.22,10,3,10,0.00
2012-12-12,32,28,23,29,25,20,96,87,79,30.22,29.81,10,3,10,0.00
2012-12-13,34,32,28,34,29,16,98,89,52,29.81,29.48,13,5,15,0.01
2012-12-14,42,38,32,41,33,20,98,84,61,29.48,28.69,28,5,32,0.57
2012-12-15,45,42,38,43,40,37,98,94,87,29.25,28.69,20,9,20,0.05
2012-12-16,48,43,39,40,38,33,92,84,71,29.36,29.25,15,5,17,0.00
2012-12-17,43,41,38,42,40,36,98,97,92,29.72,29.34,16,7,17,0.03
2012-12-18,44,42,40,44,41,38,98,97,94,30.13,29.75,15,4,15,0.01
2012-12-19,43,42,38,40,36,32,97,81,66,30.10,29.84,24,13,27,0.20
2012-12-20,42,41,40,40,38,36,98,91,80,29.84,29.57,34,-68,34,1.36
2012-12-21,41,40,40,40,39,39,98,98,98,29.87,29.63,23,-120,23,0.52
2012-12-22,44,42,40,43,42,40,98,98,95,29.81,29.22,25,-14,25,0.96
2012-12-23,50,46,44,50,43,36,98,90,71,29.45,28.92,37,14,39,0.39
2012-12-24,46,43,41,44,40,38,97,91,86,29.45,29.19,20,6,22,0.13
2012-12-25,44,40,36,42,38,33,98,90,73,29.31,29.13,19,6,22,0.02
2012-12-26,42,39,36,39,37,18,98,91,79,29.45,29.31,24,8,24,0.55
2012-12-27,36,35,34,36,32,28,98,87,75,29.90,29.34,30,10,30,0.19
2012-12-28,54,47,36,49,42,33,97,84,72,29.87,29.22,33,13,45,0.25
2012-12-29,54,45,38,48,37,31,90,75,57,29.25,29.19,42,10,46,0.30
2012-12-30,50,40,35,49,36,30,98,86,71,29.36,29.22,34,14,40,0.37
2012-12-31,51,45,36,47,38,30,91,77,63,29.31,29.01,38,16,40,0.21
2013-1-1,44,39,36,37,34,29,89,82,66,29.90,29.28,24,9,25,0.00